Regional Weather Roundup
Issued by NWS

Home | Current Version | Previous Version | Text Only | Print | Product List | Glossary Off
Versions: 1 2 3 4 5 6 7 8 9 10 11 12 13 14 15 16 17 18 19 20 21 22 23 24 25 26 27 28 29 30 31 32 33 34 35 36 37 38 39 40 41 42 43 44 45 46 47 48 49 50

000
ASUS44 KMEG 071400
RWRTN
TENNESSEE HOURLY STATE WEATHER ROUNDUP
NATIONAL WEATHER SERVICE MEMPHIS TN
900 AM CDT TUE JUL 07 2015

TNZ002-004-019-021-049-052-054-088>092-071500-
WEST TENNESSEE

CITY           SKY/WX    TMP DP  RH WIND       PRES   REMARKS
MEMPHIS INTL   PTSUNNY   82  74  76 SW12G23   30.07R
NWS MEMPHIS      N/A     81 N/A N/A MISG        N/A
JACKSON        MOSUNNY   81  74  79 SW13G20   30.06S
DYERSBURG        N/A    N/A N/A N/A MISG        N/A
PARIS          SUNNY     77  73  88 S8        30.04S
LEXINGTON      MOSUNNY   81  73  78 SW10      30.06S
$$

TNZ008-025-027-028-033-062-065-066-071500-
NORTH MIDDLE TENNESSEE

CITY           SKY/WX    TMP DP  RH WIND       PRES   REMARKS
NASHVILLE      PTSUNNY   80  74  81 SW9G17    30.08S
CLARKSVILLE    CLOUDY    77  72  84 SW10      30.04S
COOKEVILLE     PTSUNNY   81  75  83 SW8       30.12S
CROSSVILLE     CLOUDY    77  70  79 W8        30.19R
$$

TNZ061-075-076-078-094-096-097-071500-
SOUTH MIDDLE TENNESSEE

CITY           SKY/WX    TMP DP  RH WIND       PRES   REMARKS
FAYETTEVILLE   MOSUNNY   79  72  78 SW9       30.14F
TULLAHOMA      SUNNY     79  72  78 SW12      30.15S
WINCHESTER     PTSUNNY   81  72  74 S7        30.15S
COLUMBIA       MOSUNNY   82  75  78 SW14      30.09S
SHELBYVILLE    SUNNY     81  75  83 SW10        N/A
$$

TNZ017-018-042-046-047-071500-
NORTHEAST TENNESSEE

CITY           SKY/WX    TMP DP  RH WIND       PRES   REMARKS
TRI CITIES     PTSUNNY   73  67  81 CALM      30.18S
ELIZABETHTON   MOSUNNY   72  64  78 E3        30.19S
$$

TNZ012-013-036-069-073-074-071500-
CENTRAL EAST TENNESSEE

CITY           SKY/WX    TMP DP  RH WIND       PRES   REMARKS
KNOXVILLE      CLOUDY    78  70  76 SW12      30.15R
OAK RIDGE      PTSUNNY   77  70  79 W5        30.16R
GATLINBURG     SUNNY     79  66  65 CALM      30.15S
$$

TNZ083-085-099-071500-
SOUTHEAST TENNESSEE

CITY           SKY/WX    TMP DP  RH WIND       PRES   REMARKS
CHATTANOOGA    MOSUNNY   80  71  74 VRB5      30.16R
$$

SKY/WX REPORTED AS FAIR MEANS FEW OR NO CLOUDS BELOW
12 THOUSAND FEET.




USA.gov is the U.S. government's official web portal to all federal, state and local government web resources and services.